H1 CPF 1 NER 2017 6 23 9 6741 glonass101 H2 0606203 9101 29672 2017 6 23 0 0 0 2017 6 26 23 45 0 900 1 1 0 0 0 H9 10 0 57927 0.00000 0 17455338.562 1303407.410 -18614826.595 10 0 57927 900.00000 0 19368662.678 2317935.333 -16508304.250 10 0 57927 1800.00000 0 21105974.470 3057667.493 -14082879.565 10 0 57927 2700.00000 0 22606143.176 3538640.343 -11385451.823 10 0 57927 3600.00000 0 23814432.502 3788393.535 -8468134.645 10 0 57927 4500.00000 0 24684733.947 3844564.662 -5387265.072 10 0 57927 5400.00000 0 25181462.482 3753063.818 -2202333.642 10 0 57927 6300.00000 0 25281036.456 3565903.955 1025145.576 10 0 57927 7200.00000 0 24972880.465 3338777.232 4232804.739 10 0 57927 8100.00000 0 24259909.045 3128478.153 7358610.756 10 0 57927 9000.00000 0 23158470.062 2990280.763 10342051.064 10 0 57927 9900.00000 0 21697748.617 2975379.435 13125294.734 10 0 57927 10800.00000 0 19918654.320 3128500.636 15654307.358 10 0 57927 11700.00000 0 17872236.053 3485786.472 17879898.645 10 0 57927 12600.00000 0 15617687.965 4073040.099 19758682.499 10 0 57927 13500.00000 0 13220027.582 4904408.593 21253930.757 10 0 57927 14400.00000 0 10747540.817 5981561.122 22336303.398 10 0 57927 15300.00000 0 8269098.965 7293400.002 22984439.965 10 0 57927 16200.00000 0 5851458.561 8816320.085 23185399.350 10 0 57927 17100.00000 0 3556656.372 10515009.104 22934937.700 10 0 57927 18000.00000 0 1439608.584 12343758.554 22237617.116 10 0 57927 18900.00000 0 -453984.794 14248232.866 21106741.027 10 0 57927 19800.00000 0 -2089341.595 16167624.686 19564115.536 10 0 57927 20700.00000 0 -3443832.613 18037106.845 17639639.646 10 0 57927 21600.00000 0 -4507697.290 19790478.242 15370730.988 10 0 57927 22500.00000 0 -5284209.070 21362891.694 12801597.387 10 0 57927 23400.00000 0 -5789283.182 22693547.433 9982368.324 10 0 57927 24300.00000 0 -6050543.857 23728236.852 6968103.718 10 0 57927 25200.00000 0 -6105891.628 24421627.045 3817700.556 10 0 57927 26100.00000 0 -6001633.249 24739187.675 592720.569 10 0 57927 27000.00000 0 -5790256.042 24658677.171 -2643835.922 10 0 57927 27900.00000 0 -5527943.993 24171124.551 -5828783.609 10 0 57927 28800.00000 0 -5271943.978 23281265.236 -8900006.183 10 0 57927 29700.00000 0 -5077896.750 22007413.168 -11797684.058 10 0 57927 30600.00000 0 -4997248.243 20380776.040 -14465470.142 10 0 57927 31500.00000 0 -5074852.568 18444244.481 -16851589.545 10 0 57927 32400.00000 0 -5346869.031 16250708.360 -18909841.536 10 0 57927 33300.00000 0 -5839042.104 13860973.046 -20600484.682 10 0 57927 34200.00000 0 -6565436.111 11341364.818 -21890989.086 10 0 57927 35100.00000 0 -7527676.618 8761126.747 -22756642.959 10 0 57927 36000.00000 0 -8714728.695 6189714.067 -23181003.956 10 0 57927 36900.00000 0 -10103219.532 3694101.258 -23156188.947 10 0 57927 37800.00000 0 -11658290.281 1336211.407 -22682999.062 10 0 57927 38700.00000 0 -13334940.310 -829427.663 -21770879.790 10 0 57927 39600.00000 0 -15079807.014 -2757705.906 -20437718.732 10 0 57927 40500.00000 0 -16833306.954 -4414551.550 -18709486.227 10 0 57927 41400.00000 0 -18532049.710 -5778085.631 -16619726.495 10 0 57927 42300.00000 0 -20111424.988 -6839265.674 -14208909.283 10 0 57927 43200.00000 0 -21508256.801 -7601994.548 -11523654.098 10 0 57927 44100.00000 0 -22663415.932 -8082692.094 -8615841.061 10 0 57927 45000.00000 0 -23524283.513 -8309348.780 -5541624.336 10 0 57927 45900.00000 0 -24046964.551 -8320101.677 -2360365.641 10 0 57927 46800.00000 0 -24198160.195 -8161392.319 866493.244 10 0 57927 47700.00000 0 -23956621.109 -7885783.093 4076598.774 10 0 57927 48600.00000 0 -23314121.156 -7549522.856 7207873.754 10 0 57927 49500.00000 0 -22275909.929 -7209962.982 10199703.743 10 0 57927 50400.00000 0 -20860623.706 -6922931.410 12994099.841 10 0 57927 51300.00000 0 -19099656.535 -6740174.477 15536816.301 10 0 57927 52200.00000 0 -17036015.184 -6706973.967 17778401.834 10 0 57927 53100.00000 0 -14722703.099 -6860040.048 19675164.374 10 0 57927 54000.00000 0 -12220698.062 -7225769.902 21190030.386 10 0 57927 54900.00000 0 -9596605.323 -7818947.156 22293281.468 10 0 57927 55800.00000 0 -6920081.998 -8641939.251 22963152.896 10 0 57927 56700.00000 0 -4261138.499 -9684429.439 23186281.134 10 0 57927 57600.00000 0 -1687428.516 -10923697.853 22957989.933 10 0 57927 58500.00000 0 738359.612 -12325442.966 22282407.551 10 0 57927 59400.00000 0 2960900.930 -13845111.760 21172410.791 10 0 57927 60300.00000 0 4934320.330 -15429685.012 19649394.972 10 0 57927 61200.00000 0 6623878.913 -17019844.030 17742872.546 10 0 57927 62100.00000 0 8007188.449 -18552428.315 15489906.792 10 0 57927 63000.00000 0 9074901.939 -19963080.314 12934390.718 10 0 57927 63900.00000 0 9830850.616 -21188964.551 10126185.061 10 0 57927 64800.00000 0 10291621.718 -22171444.645 7120132.651 10 0 57927 65700.00000 0 10485595.649 -22858602.942 3974969.497 10 0 57927 66600.00000 0 10451484.798 -23207494.011 752155.727 10 0 57927 67500.00000 0 10236438.158 -23186034.710 -2485348.625 10 0 57927 68400.00000 0 9893794.877 -22774449.405 -5674336.580 10 0 57927 69300.00000 0 9480584.996 -21966208.466 -8752608.928 10 0 57927 70200.00000 0 9054886.389 -20768420.436 -11660203.942 10 0 57927 71100.00000 0 8673152.651 -19201662.124 -14340576.368 10 0 57927 72000.00000 0 8387627.154 -17299255.309 -16741701.460 10 0 57927 72900.00000 0 8243954.038 -15106022.385 -18817082.225 10 0 57927 73800.00000 0 8279087.457 -12676575.203 -20526640.700 10 0 57927 74700.00000 0 8519586.861 -10073210.762 -21837477.014 10 0 57927 75600.00000 0 8980368.854 -7363503.117 -22724483.321 10 0 57927 76500.00000 0 9663966.441 -4617692.644 -23170802.890 10 0 57927 77400.00000 0 10560324.644 -1905981.399 -23168127.875 10 0 57927 78300.00000 0 11647139.099 704154.074 -22716832.446 10 0 57927 79200.00000 0 12890721.694 3150522.713 -21825940.935 10 0 57927 80100.00000 0 14247355.784 5378547.941 -20512933.437 10 0 57927 81000.00000 0 15665083.732 7343272.148 -18803393.994 10 0 57927 81900.00000 0 17085852.206 9010956.745 -16730508.843 10 0 57927 82800.00000 0 18447926.308 10360214.540 -14334424.632 10 0 57927 83700.00000 0 19688473.007 11382630.315 -11661478.587 10 0 57927 84600.00000 0 20746207.577 12082846.260 -8763314.556 10 0 57927 85500.00000 0 21563994.186 12478110.410 -5695900.831 10 0 57928 0.00000 0 22091293.634 12597308.053 -2518467.228 10 0 57928 900.00000 0 22286356.901 12479516.902 707620.128 10 0 57928 1800.00000 0 22118074.561 12172146.274 3920025.124 10 0 57928 2700.00000 0 21567403.072 11728737.397 7056629.540 10 0 57928 3600.00000 0 20628309.643 11206516.195 10056719.929 10 0 57928 4500.00000 0 19308193.482 10663800.079 12862152.036 10 0 57928 5400.00000 0 17627764.446 10157366.789 15418471.082 10 0 57928 6300.00000 0 15620381.419 9739895.236 17675966.790 10 0 57928 7200.00000 0 13330875.254 9457585.881 19590642.813 10 0 57928 8100.00000 0 10813902.349 9348061.217 21125081.622 10 0 57928 9000.00000 0 8131894.536 9438635.878 22249187.506 10 0 57928 9900.00000 0 5352688.201 9745030.954 22940792.188 10 0 57928 10800.00000 0 2546929.238 10270588.969 23186110.041 10 0 57928 11700.00000 0 -214639.544 11006025.289 22980032.331 10 0 57928 12600.00000 0 -2863896.229 11929729.281 22326252.903 10 0 57928 13500.00000 0 -5337949.597 13008605.307 21237220.849 10 0 57928 14400.00000 0 -7581531.477 14199420.526 19733919.092 10 0 57928 15300.00000 0 -9549070.618 15450604.452 17845471.415 10 0 57928 16200.00000 0 -11206360.069 16704425.337 15608584.183 10 0 57928 17100.00000 0 -12531747.006 17899451.649 13066832.671 10 0 57928 18000.00000 0 -13516794.023 18973193.825 10269805.707 10 0 57928 18900.00000 0 -14166383.745 19864813.116 7272125.719 10 0 57928 19800.00000 0 -14498262.672 20517780.811 4132364.384 10 0 57928 20700.00000 0 -14542044.600 20882372.947 911876.899 10 0 57928 21600.00000 0 -14337717.674 20917892.581 -2326420.208 10 0 57928 22500.00000 0 -13933720.817 20594523.606 -5519301.368 10 0 57928 23400.00000 0 -13384673.942 19894736.307 -8604487.329 10 0 57928 24300.00000 0 -12748861.237 18814184.661 -11521876.835 10 0 57928 25200.00000 0 -12085577.015 17362057.690 -14214728.762 10 0 57928 26100.00000 0 -11452448.938 15560871.013 -16630770.443 10 0 57928 27000.00000 0 -10902853.507 13445708.898 -18723210.178 10 0 57928 27900.00000 0 -10483533.817 11062950.412 -20451634.635 10 0 57928 28800.00000 0 -10232519.908 8468534.947 -21782774.751 10 0 57928 29700.00000 0 -10177438.335 5725841.171 -22691127.028 10 0 57928 30600.00000 0 -10334280.317 2903268.853 -23159420.392 10 0 57928 31500.00000 0 -10706678.018 71624.633 -23178921.955 10 0 57928 32400.00000 0 -11285716.969 -2698580.193 -22749578.225 10 0 57928 33300.00000 0 -12050290.243 -5339809.115 -21879991.287 10 0 57928 34200.00000 0 -12967977.694 -7790047.970 -20587232.277 10 0 57928 35100.00000 0 -13996412.181 -9995117.771 -18896497.111 10 0 57928 36000.00000 0 -15085075.067 -11910659.950 -16840611.899 10 0 57928 36900.00000 0 -16177445.981 -13503714.777 -14459397.801 10 0 57928 37800.00000 0 -17213417.735 -14753830.404 -11798907.185 10 0 57928 38700.00000 0 -18131876.598 -15653659.083 -8910544.966 10 0 57928 39600.00000 0 -18873341.521 -16209017.665 -5850090.870 10 0 57928 40500.00000 0 -19382553.393 -16438411.283 -2676640.008 10 0 57928 41400.00000 0 -19610907.364 -16372040.713 548519.483 10 0 57928 42300.00000 0 -19518627.314 -16050334.842 3763071.603 10 0 57928 43200.00000 0 -19076591.825 -15522069.094 6904859.581 10 0 57928 44100.00000 0 -18267734.876 -14842147.655 9913073.358 10 0 57928 45000.00000 0 -17087961.543 -14069141.273 12729415.622 10 0 57928 45900.00000 0 -15546538.608 -13262682.816 15299224.729 10 0 57928 46800.00000 0 -13665941.262 -12480828.944 17572533.392 10 0 57928 47700.00000 0 -11481159.415 -11777498.137 19505042.724 10 0 57928 48600.00000 0 -9038489.353 -11200092.713 21058992.666 10 0 57928 49500.00000 0 -6393857.841 -10787405.285 22203911.315 10 0 57928 50400.00000 0 -3610745.561 -10567898.917 22917227.626 10 0 57928 51300.00000 0 -757793.711 -10558435.004 23184734.299 10 0 57928 52200.00000 0 2093808.620 -10763504.626 23000890.182 10 0 57928 53100.00000 0 4873048.667 -11174998.186 22368954.434 10 0 57928 54000.00000 0 7511812.901 -11772525.538 21300947.839 10 0 57928 54900.00000 0 9947494.850 -12524275.389 19817440.006 10 0 57928 55800.00000 0 12125378.110 -13388379.582 17947164.816 10 0 57928 56700.00000 0 14000693.711 -14314725.801 15726470.149 10 0 57928 57600.00000 0 15540264.333 -15247142.485 13198611.626 10 0 57928 58500.00000 0 16723665.083 -16125863.022 10412903.884 10 0 57928 59400.00000 0 17543851.238 -16890163.636 7423746.326 10 0 57928 60300.00000 0 18007226.348 -17481061.276 4289543.368 10 0 57928 61200.00000 0 18133148.336 -17843954.811 1071542.122 10 0 57928 62100.00000 0 17952895.876 -17931095.128 -2167387.670 10 0 57928 63000.00000 0 17508140.941 -17703777.150 -5364005.139 10 0 57928 63900.00000 0 16848994.806 -17134159.099 -8455954.200 10 0 57928 64800.00000 0 16031713.283 -16206630.871 -11382997.086 10 0 57928 65700.00000 0 15116161.329 -14918673.265 -14088199.599 10 0 57928 66600.00000 0 14163146.927 -13281172.264 -16519043.657 10 0 57928 67500.00000 0 13231739.042 -11318176.129 -18628445.055 10 0 57928 68400.00000 0 12376684.045 -9066107.039 -20375656.956 10 0 57928 69300.00000 0 11646029.838 -6572462.036 -21727042.583 10 0 57928 70200.00000 0 11079056.973 -3894059.212 -22656703.865 10 0 57928 71100.00000 0 10704602.208 -1094903.509 -23146956.030 10 0 57928 72000.00000 0 10539842.672 1756238.307 -23188641.353 10 0 57928 72900.00000 0 10589589.048 4588452.797 -22781278.455 10 0 57928 73800.00000 0 10846114.733 7331377.573 -21933046.537 10 0 57928 74700.00000 0 11289525.700 9917871.232 -20660606.727 10 0 57928 75600.00000 0 11888653.614 12286547.269 -18988765.414 10 0 57928 76500.00000 0 12602433.514 14384069.637 -16949986.825 10 0 57928 77400.00000 0 13381707.823 16167117.712 -14583764.531 10 0 57928 78300.00000 0 14171381.332 17603942.060 -11935863.634 10 0 57928 79200.00000 0 14912837.660 18675449.048 -9057447.396 10 0 57928 80100.00000 0 15546517.197 19375771.289 -6004104.010 10 0 57928 81000.00000 0 16014549.933 19712301.748 -2834790.781 10 0 57928 81900.00000 0 16263334.211 19705190.970 389285.560 10 0 57928 82800.00000 0 16245954.425 19386328.522 3605832.359 10 0 57928 83700.00000 0 15924336.969 18797850.830 6752657.506 10 0 57928 84600.00000 0 15271054.019 17990236.909 9768857.378 10 0 57928 85500.00000 0 14270698.850 17020070.482 12595984.403 10 0 57929 0.00000 0 12920773.629 15947560.915 15179172.539 10 0 57929 900.00000 0 11232049.759 14833925.763 17468199.789 10 0 57929 1800.00000 0 9228384.272 13738743.303 19418466.592 10 0 57929 2700.00000 0 6945994.511 12717386.518 20991871.923 10 0 57929 3600.00000 0 4432219.964 11818645.063 22157568.944 10 0 57929 4500.00000 0 1743818.287 11082636.575 22892584.750 10 0 57929 5400.00000 0 -1055136.082 10539095.764 23182290.884 10 0 57929 6300.00000 0 -3895665.882 10206114.977 23020713.868 10 0 57929 7200.00000 0 -6706518.742 10089391.188 22410677.784 10 0 57929 8100.00000 0 -9416900.246 10182013.263 21363774.191 10 0 57929 9000.00000 0 -11959198.642 10464800.520 19900157.929 10 0 57929 9900.00000 0 -14271586.871 10907180.106 18048170.983 10 0 57929 10800.00000 0 -16300392.143 11468567.338 15843800.261 10 0 57929 11700.00000 0 -18002132.433 12100191.237 13329978.836 10 0 57929 12600.00000 0 -19345132.978 12747287.699 10555743.971 10 0 57929 13500.00000 0 -20310653.634 13351566.345 7575268.670 10 0 57929 14400.00000 0 -20893478.935 13853844.695 4446786.661 10 0 57929 15300.00000 0 -21101945.892 14196735.637 1231433.578 10 0 57929 16200.00000 0 -20957409.195 14327271.586 -2007970.906 10 0 57929 17100.00000 0 -20493168.011 14199351.491 -5208173.746 10 0 57929 18000.00000 0 -19752902.067 13775904.721 -8306744.948 10 0 57929 18900.00000 0 -18788685.979 13030678.511 -11243312.926 10 0 57929 19800.00000 0 -17658668.785 11949572.387 -13960752.810 10 0 57929 20700.00000 0 -16424519.605 10531463.127 -16406303.187 10 0 57929 21600.00000 0 -15148749.666 8788486.004 -18532589.053 10 0 57929 22500.00000 0 -13892025.255 6745761.654 -20298531.370 10 0 57929 23400.00000 0 -12710585.521 4440581.545 -21670126.539 10 0 57929 24300.00000 0 -11653873.400 1921087.687 -22621082.394 10 0 57929 25200.00000 0 -10762477.911 -755496.929 -23133300.543 10 0 57929 26100.00000 0 -10066472.084 -3525012.485 -23197198.105 10 0 57929 27000.00000 0 -9584213.507 -6318791.618 -22811865.129 10 0 57929 27900.00000 0 -9321654.774 -9066273.474 -21985056.878 10 0 57929 28800.00000 0 -9272189.833 -11697695.182 -20733023.091 10 0 57929 29700.00000 0 -9417040.053 -14146751.105 -19080178.921 10 0 57929 30600.00000 0 -9726161.844 -16353112.046 -17058624.731 10 0 57929 31500.00000 0 -10159636.555 -18264702.571 -14707524.311 10 0 57929 32400.00000 0 -10669483.886 -19839644.806 -12072353.139 10 0 57929 33300.00000 0 -11201823.034 -21047790.588 -9204030.391 10 0 57929 34200.00000 0 -11699291.763 -21871780.433 -6157950.257 10 0 57929 35100.00000 0 -12103623.116 -22307586.967 -2992929.785 10 0 57929 36000.00000 0 -12358272.964 -22364521.163 229908.114 10 0 57929 36900.00000 0 -12410989.382 -22064701.443 3448296.505 10 0 57929 37800.00000 0 -12216216.868 -21442007.480 6600010.271 10 0 57929 38700.00000 0 -11737234.818 -20540561.578 9624054.521 10 0 57929 39600.00000 0 -10947940.228 -19412799.851 12461833.673 10 0 57929 40500.00000 0 -9834198.712 -18117212.473 15058279.558 10 0 57929 41400.00000 0 -8394705.284 -16715846.058 17362917.343 10 0 57929 42300.00000 0 -6641316.326 -15271671.501 19330848.750 10 0 57929 43200.00000 0 -4598835.661 -13845926.535 20923633.477 10 0 57929 44100.00000 0 -2304260.147 -12495543.827 22110051.151 10 0 57929 45000.00000 0 194487.260 -11270772.505 22866728.101 10 0 57929 45900.00000 0 2840287.565 -10213093.426 23178615.510 10 0 57929 46800.00000 0 5568949.860 -9353516.789 23039308.031 10 0 57929 47700.00000 0 8311643.222 -8711335.134 22451194.816 10 0 57929 48600.00000 0 10997536.655 -8293385.915 21425438.032 10 0 57929 49500.00000 0 13556537.676 -8093856.482 19981777.254 10 0 57929 50400.00000 0 15922015.017 -8094641.359 18148161.748 10 0 57929 51300.00000 0 18033390.809 -8266237.944 15960216.284 10 0 57929 52200.00000 0 19838492.391 -8569143.409 13460549.838 10 0 57929 53100.00000 0 21295563.418 -8955693.632 10697920.351 10 0 57929 54000.00000 0 22374848.264 -9372265.336 7726272.079 10 0 57929 54900.00000 0 23059681.837 -9761746.477 4603665.333 10 0 57929 55800.00000 0 23347038.187 -10066167.824 1391121.216 10 0 57929 56700.00000 0 23247514.977 -10229381.431 -1848593.953 10 0 57929 57600.00000 0 22784755.424 -10199669.598 -5052218.343 10 0 57929 58500.00000 0 21994333.960 -9932171.092 -8157251.414 10 0 57929 59400.00000 0 20922155.126 -9391019.728 -11103190.988 10 0 57929 60300.00000 0 19622436.168 -8551103.269 -13832724.524 10 0 57929 61200.00000 0 18155361.374 -7399367.674 -16292849.991 10 0 57929 62100.00000 0 16584509.701 -5935611.774 -18435903.994 10 0 57929 63000.00000 0 14974166.025 -4172739.622 -20220477.382 10 0 57929 63900.00000 0 13386630.328 -2136461.266 -21612201.498 10 0 57929 64800.00000 0 11879637.999 135544.094 -22584391.504 10 0 57929 65700.00000 0 10503998.602 2594966.134 -23118536.458 10 0 57929 66600.00000 0 9301550.289 5184645.618 -23204629.040 10 0 57929 67500.00000 0 8303512.907 7840725.992 -22841331.048 10 0 57929 68400.00000 0 7529305.648 10495084.959 -22035973.746 10 0 57929 69300.00000 0 6985875.507 13077945.791 -20804395.013 10 0 57929 70200.00000 0 6667561.539 15520561.462 -19170617.899 10 0 57929 71100.00000 0 6556497.937 17757862.317 -17166377.638 10 0 57929 72000.00000 0 6623537.097 19730959.764 -14830506.550 10 0 57929 72900.00000 0 6829652.754 21389404.679 -12208188.418 10 0 57929 73800.00000 0 7127763.925 22693109.247 -9350095.857 10 0 57929 74700.00000 0 7464903.481 23613854.480 -6311426.234 10 0 57929 75600.00000 0 7784641.115 24136322.483 -3150853.213 10 0 57929 76500.00000 0 8029660.164 24258611.554 70587.464 10 0 57929 77400.00000 0 8144381.279 23992213.085 3290658.049 10 0 57929 78300.00000 0 8077523.794 23361451.022 6447103.914 10 0 57929 79200.00000 0 7784497.842 22402406.439 9478842.305 10 0 57929 80100.00000 0 7229526.801 21161370.880 12327132.860 10 0 57929 81000.00000 0 6387410.325 19692891.503 14936708.229 10 0 57929 81900.00000 0 5244852.468 18057488.020 17256843.535 10 0 57929 82800.00000 0 3801297.070 16319135.275 19242344.147 10 0 57929 83700.00000 0 2069232.502 14542615.362 20854432.535 10 0 57929 84600.00000 0 73949.623 12790849.033 22061516.501 10 0 57929 85500.00000 0 -2147240.505 11122317.624 22839822.936 10 0 57930 0.00000 0 -4546300.078 9588683.459 23173883.569 10 0 57930 900.00000 0 -7066218.871 8232709.191 23056861.609 10 0 57930 1800.00000 0 -9643158.202 7086563.705 22490711.217 10 0 57930 2700.00000 0 -12208898.174 6170588.512 21486164.505 10 0 57930 3600.00000 0 -14693486.576 5492576.214 20062544.561 10 0 57930 4500.00000 0 -17027979.264 5047594.296 18247406.113 10 0 57930 5400.00000 0 -19147156.903 4818362.170 16076009.411 10 0 57930 6300.00000 0 -20992103.110 4776166.447 13590636.482 10 0 57930 7200.00000 0 -22512534.124 4882275.777 10839762.693 10 0 57930 8100.00000 0 -23668780.382 5089794.648 7877100.051 10 0 57930 9000.00000 0 -24433334.970 5345876.133 4760531.803 10 0 57930 9900.00000 0 -24791902.481 5594197.611 1550960.865 10 0 57930 10800.00000 0 -24743903.544 5777591.775 -1688903.366 10 0 57930 11700.00000 0 -24302414.040 5840718.435 -4895793.690 10 0 57930 12600.00000 0 -23493542.730 5732660.906 -8007142.234 10 0 57930 13500.00000 0 -22355275.520 5409334.444 -10962319.192 10 0 57930 14400.00000 0 -20935837.629 4835602.787 -13703827.027 10 0 57930 15300.00000 0 -19291645.510 3987012.132 -16178425.434 10 0 57930 16200.00000 0 -17484937.515 2851068.964 -18338164.570 10 0 57930 17100.00000 0 -15581185.236 1428008.256 -20141306.674 10 0 57930 18000.00000 0 -13646395.904 -268979.218 -21553119.051 10 0 57930 18900.00000 0 -11744419.638 -2214068.651 -22546524.721 10 0 57930 19800.00000 0 -9934373.938 -4369657.097 -23102600.234 10 0 57930 20700.00000 0 -8268291.855 -6687716.343 -23210913.408 10 0 57930 21600.00000 0 -6789089.795 -9111585.426 -22869696.949 10 0 57930 22500.00000 0 -5528936.919 -11578127.849 -22085856.906 10 0 57930 23400.00000 0 -4508090.924 -14020163.972 -20874817.766 10 0 57930 24300.00000 0 -3734245.433 -16369078.613 -19260208.660 10 0 57930 25200.00000 0 -3202413.108 -18557497.118 -17273397.652 10 0 57930 26100.00000 0 -2895346.792 -20521920.815 -14952883.389 10 0 57930 27000.00000 0 -2784479.139 -22205214.733 -12343555.628 10 0 57930 27900.00000 0 -2831340.235 -23558846.565 -9495838.054 10 0 57930 28800.00000 0 -2989393.492 -24544785.830 -6464728.822 10 0 57930 29700.00000 0 -3206213.114 -25136986.030 -3308755.861 10 0 57930 30600.00000 0 -3425912.560 -25322389.224 -88865.430 10 0 57930 31500.00000 0 -3591723.132 -25101411.683 3132736.178 10 0 57930 32400.00000 0 -3648615.445 -24487890.246 6293767.041 10 0 57930 33300.00000 0 -3545854.479 -23508490.811 9333058.717 10 0 57930 34200.00000 0 -3239381.289 -22201602.355 12191728.201 10 0 57930 35100.00000 0 -2693921.075 -20615760.931 14814311.029 10 0 57930 36000.00000 0 -1884728.144 -18807667.552 17149834.256 10 0 57930 36900.00000 0 -798892.816 -16839880.793 19152808.714 10 0 57930 37800.00000 0 563846.969 -14778278.716 20784121.269 10 0 57930 38700.00000 0 2190826.463 -12689394.634 22011809.286 10 0 57930 39600.00000 0 4056722.420 -10637737.106 22811701.336 10 0 57930 40500.00000 0 6124361.362 -8683205.663 23167910.505 10 0 57930 41400.00000 0 8346037.556 -6878710.428 23073169.120 10 0 57930 42300.00000 0 10665288.707 -5268095.915 22528996.550 10 0 57930 43200.00000 0 13019057.718 -3884456.991 21545694.840 10 0 57930 44100.00000 0 15340151.873 -2748918.890 20142170.254 10 0 57930 45000.00000 0 17559897.337 -1869933.920 18345582.367 10 0 57930 45900.00000 0 19610877.727 -1243125.597 16190825.993 10 0 57930 46800.00000 0 21429641.049 -851687.503 13719854.962 10 0 57930 47700.00000 0 22959259.780 -667320.320 10980860.475 10 0 57930 48600.00000 0 24151634.592 -651666.835 8027320.327 10 0 57930 49500.00000 0 24969442.817 -758182.954 4916938.383 10 0 57930 50400.00000 0 25387647.811 -934363.437 1710496.714 10 0 57930 51300.00000 0 25394504.464 -1124225.415 -1529355.135 10 0 57930 52200.00000 0 24992018.016 -1270941.396 -4739347.681 10 0 57930 53100.00000 0 24195837.314 -1319507.095 -7856848.867 10 0 57930 54000.00000 0 23034588.326 -1219328.156 -10821104.339 10 0 57930 54900.00000 0 21548678.042 -926613.850 -13574434.481 10 0 57930 55800.00000 0 19788621.660 -406474.880 -16063363.402 10 0 57930 56700.00000 0 17812966.084 365364.181 -18239657.253 10 0 57930 57600.00000 0 15685899.398 1401310.061 -20061251.844 10 0 57930 58500.00000 0 13474648.549 2701155.614 -21493052.382 10 0 57930 59400.00000 0 11246775.374 4251874.398 -22507591.448 10 0 57930 60300.00000 0 9067484.130 6027962.078 -23085534.552 10 0 57930 61200.00000 0 6997052.229 7992308.825 -23216025.861 10 0 57930 62100.00000 0 5088489.450 10097564.988 -22896869.914 10 0 57930 63000.00000 0 3385520.574 12287942.344 -22134548.131 10 0 57930 63900.00000 0 1920972.361 14501375.645 -20944071.817 10 0 57930 64800.00000 0 715628.588 16671955.064 -19348675.998 10 0 57930 65700.00000 0 -222402.539 18732529.522 -17379360.934 10 0 57930 66600.00000 0 -897785.215 20617374.255 -15074290.530 10 0 57930 67500.00000 0 -1327515.606 22264813.778 -12478058.979 10 0 57930 68400.00000 0 -1539964.304 23619693.287 -9640839.040 10 0 57930 69300.00000 0 -1573442.665 24635597.700 -6617427.248 10 0 57930 70200.00000 0 -1474353.372 25276727.592 -3466203.004 10 0 57930 71100.00000 0 -1295002.351 25519355.218 -248019.958 10 0 57930 72000.00000 0 -1091162.980 25352800.547 2974950.408 10 0 57930 72900.00000 0 -919493.895 24779886.535 6140402.385 10 0 57930 73800.00000 0 -834917.870 23816853.900 9187085.406 10 0 57930 74700.00000 0 -888071.199 22492737.650 12055977.334 10 0 57930 75600.00000 0 -1122930.552 20848229.601 14691419.987 10 0 57930 76500.00000 0 -1574717.486 18934072.185 17042195.554 10 0 57930 77400.00000 0 -2268169.707 16809048.402 19062523.305 10 0 57930 78300.00000 0 -3216253.617 14537649.591 20712957.190 10 0 57930 79200.00000 0 -4419374.729 12187516.375 21961166.495 10 0 57930 80100.00000 0 -5865122.149 9826758.144 22782583.455 10 0 57930 81000.00000 0 -7528561.301 7521261.904 23160904.076 10 0 57930 81900.00000 0 -9373066.144 5332102.443 23088430.860 10 0 57930 82800.00000 0 -11351659.334 3313162.244 22566248.919 10 0 57930 83700.00000 0 -13408807.057 1509061.303 21604230.126 10 0 57930 84600.00000 0 -15482595.540 -46515.458 20220863.198 10 0 57930 85500.00000 0 -17507199.251 -1332021.810 18442911.177 99